Regional Weather Roundup
Issued by NWS

Home | Current Version | Previous Version | Text Only | Print | Product List | Glossary Off
Versions: 1 2 3 4 5 6 7 8 9 10 11 12 13 14 15 16 17 18 19 20 21 22 23 24 25 26 27 28 29 30 31 32 33 34 35 36 37 38 39 40 41 42 43 44 45 46 47 48 49 50

000
ASUS43 KMPX 110101
RWRMN
WEATHER ROUNDUP FOR MINNESOTA
NATIONAL WEATHER SERVICE TWIN CITIES/CHANHASSEN MN
700 PM CST SUN DEC 10 2017


NOTE: "FAIR" INDICATES FEW OR NO CLOUDS BELOW 12,000 FEET WITH NO
SIGNIFICANT WEATHER AND/OR OBSTRUCTIONS TO VISIBILITY. N/A MEANS
CURRENT SKY AND/OR WEATHER CONDITIONS ARE NOT AVAILABLE.

MNZ060>063-068>070-110200-
   Twin Cities Metro

CITY           SKY/WX    TMP DP  RH WIND       PRES   REMARKS
TWIN CITIES    CLOUDY    25  20  81 CALM      30.05S
ST PAUL        CLEAR     23  20  88 CALM      30.06F
CRYSTAL        CLOUDY    20  16  84 CALM      30.03S
BLAINE         CLEAR     21  18  86 CALM      30.03F
LAKEVILLE      CLOUDY    18  18 100 CALM      30.05S
EDEN PRAIRIE   CLOUDY    23  18  81 S3        30.04S
SOUTH ST PAUL  CLOUDY    22  19  88 CALM      30.05F
LAKE ELMO      FAIR      19  18  93 CALM      30.05S
$$
MNZ001>005-007-008-013>017-022>024-027-028-110200-
   Northwest Minnesota

CITY           SKY/WX    TMP DP  RH WIND       PRES   REMARKS
BEMIDJI        CLOUDY    13  11  93 CALM      29.94F
HALLOCK        CLOUDY    23  19  86 S10       29.93F WCI  12
ROSEAU         CLOUDY    18  12  79 S6        29.93F WCI   9
WARROAD        CLOUDY    16  10  79 S6        29.92F WCI   7
THIEF RVR FALL MOCLDY    19  18  93 S6        29.95F WCI  11
CROOKSTON      CLOUDY    23  19  86 S7        29.96F WCI  15
FOSSTON        PTCLDY    18  16  93 S6        29.94F WCI   9
DETROIT LAKES  CLOUDY    23  21  93 SE5       29.94F WCI  17
MOORHEAD       PTCLDY    25  19  80 CALM      29.96F
PARK RAPIDS    CLOUDY    17  13  84 SW3       29.94F
MAHNOMEN       CLOUDY    22  19  88 S5        29.94F WCI  15
$$
MNZ006-009>011-018-025>026-110200-
   North Central Minnesota

CITY           SKY/WX    TMP DP  RH WIND       PRES   REMARKS
BAUDETTE       PTCLDY    15  11  83 SE6       29.92F WCI   6
FLAG ISLAND    CLOUDY    12   9  85 SE8       29.90F WCI   1
INTL FALLS     CLOUDY     5   2  87 S3        29.95F
WASKISH        CLOUDY    19  18  93 S3        29.94F
BIG FORK       PTCLDY    12  10  92 CALM      29.95F
GRAND RAPIDS   CLOUDY    19  14  81 CALM      29.98F
ORR            CLOUDY     9   5  85 CALM      29.93F
COOK           CLOUDY     3   1  92 CALM      29.96F
WALKER         FAIR      18  14  86 CALM      29.95F
$$
MNZ012-019>021-037-110200-
   Northeast Minnesota

CITY           SKY/WX    TMP DP  RH WIND       PRES   REMARKS
DULUTH         CLOUDY    13   9  84 NW8       29.97F WCI   2
ELY            CLOUDY     1  -2  85 SE3       29.96F
HIBBING        CLOUDY     7   5  91 CALM      29.96F
EVELETH        CLOUDY     3   0  85 CALM      29.98F
DULUTH HARBOR  CLOUDY    19  14  79 NW3       30.05F
TWO HARBORS    CLOUDY    12   7  79 CALM      29.98F
G MARAIS ARPRT CLEAR      3  -2  78 NW6       29.93F WCI  -8
$$
MNZ029>031-032-039>041-046>048-054>057-064-110200-
   West Central Minnesota

CITY           SKY/WX    TMP DP  RH WIND       PRES   REMARKS
FERGUS FALLS   CLOUDY    27  21  80 SE5       29.98F WCI  21
MORRIS         CLOUDY    30  23  74 CALM      29.99F
ALEXANDRIA     CLOUDY    25  19  78 CALM      29.99F
ELBOW LAKE     CLOUDY    27  22  80 E3        29.98F HAZE
WADENA         CLOUDY    18  16  93 CALM      29.96F
GLENWOOD       CLOUDY    27  21  80 SW3       30.00F
BENSON           N/A     30  25  80 CALM      30.02F
ORTONVILLE     CLOUDY    32  25  74 SE5       29.99F WCI  27
MADISON        CLOUDY    34  28  80 S5        30.01F WCI  30
WILLMAR        FAIR      32  25  74 CALM      30.02F
$$
MNZ033>034-036-042>043-049>051-058-059-110200-
   Central Minnesota

CITY           SKY/WX    TMP DP  RH WIND       PRES   REMARKS
ST CLOUD       CLOUDY    20  17  88 CALM      30.01F
SAUK CENTRE    CLOUDY    20  18  92 CALM      30.00F
PAYNESVILLE    PTCLDY    23  20  91 CALM      30.02F
AITKIN         CLOUDY    12  10  92 CALM      29.97F
PINE RIVER     CLOUDY    14  10  85 CALM      30.00F
BRAINERD       CLEAR     20  14  77 SW3       29.98F
STAPLES        CLOUDY    18  16  93 CALM      29.97F
LONG PRAIRIE   FAIR      19  16  86 S3        30.00F
LITTLE FALLS   CLOUDY    21  14  73 CALM      30.01F
LITCHFIELD     PTCLDY    28  23  80 CALM      30.03F
BUFFALO        CLEAR     20  17  86 CALM      30.03F
MAPLE LAKE     CLOUDY    22  20  91 CALM      30.03F
HUTCHINSON     PTCLDY    27  24  89 CALM      30.04F
$$
MNZ037-044-045-052-053-110200-
   East Central Minnesota

CITY           SKY/WX    TMP DP  RH WIND       PRES   REMARKS
PRINCETON      PTCLDY    18  16  93 CALM      30.02F
MORA           PTCLDY    18  14  86 CALM      30.03F
CAMBRIDGE      CLOUDY    21  14  73 CALM      30.02F
RUSH CITY      CLOUDY    17  15  92 CALM      30.03S
MOOSE LAKE     CLOUDY    18  14  86 CALM      30.00S
HINCKLEY       FAIR      16  14  93 CALM      30.02S
CLOQUET        CLOUDY    19  12  73 CALM      29.99F
MCGREGOR       PTCLDY    18  16  93 CALM      29.99F
$$
MNZ071>073-080-081-089-090-097-098-110200-
   Southwest Minnesota

CITY           SKY/WX    TMP DP  RH WIND       PRES   REMARKS
MONTEVIDEO     CLOUDY    32  25  74 CALM      30.02F
GRANITE FALLS  CLOUDY    35  26  70 CALM      30.05F
CANBY          CLOUDY    33  28  83 E5        30.02F WCI  28
MARSHALL       CLOUDY    33  26  75 S3        30.04F
REDWOOD FALLS  CLOUDY    34  23  64 CALM      30.03F
OLIVIA         CLOUDY    32  27  80 CALM      30.02F
PIPESTONE      CLOUDY    34  27  75 W7        30.02F WCI  28
WINDOM           N/A     34  19  55 CALM      30.03F
WORTHINGTON    CLOUDY    33  28  81 SW6       30.04F WCI  28
JACKSON        CLOUDY    32  27  80 MISG      30.03F
TRACY          CLOUDY    33  28  83 CALM      30.02F
$$
MNZ065>067-074>077-082>085-091>093-110200-
   South Central Minnesota

CITY           SKY/WX    TMP DP  RH WIND       PRES   REMARKS
MANKATO        CLOUDY    28  24  85 S5        30.05S WCI  23
NEW ULM        CLOUDY    30  25  80 W3        30.04F
ST JAMES       CLOUDY    32  27  80 CALM      30.06S
FAIRMONT       CLOUDY    32  26  78 CALM      30.06S
GLENCOE        CLOUDY    24  22  91 CALM      30.03F
FARIBAULT      CLOUDY    19  18  93 CALM      30.05F
WASECA         CLOUDY    23  19  86 E3        30.07R
ALBERT LEA     CLOUDY    27  21  80 CALM      30.05F
$$
MNZ078>079-086>088-094>096-110200-
   Southeast Minnesota

CITY           SKY/WX    TMP DP  RH WIND       PRES   REMARKS
ROCHESTER      CLOUDY    26  21  81 NW7       30.04S WCI  18
RED WING       CLEAR     21  16  79 CALM      30.05S
STANTON        CLOUDY    19  17  92 S3        30.04S
DODGE CENTER   PTCLDY    25  19  80 W5        30.05S WCI  19
WINONA         CLOUDY    30  23  74 CALM      30.08S
AUSTIN         CLOUDY    25  21  86 CALM      30.05F
PRESTON        CLOUDY    26  20  78 NW9       30.05S WCI  17
$$
ABBREVIATIONS USED IN REMARKS
   TC - TEMPERATURES IN CELSIUS
  WCI - WIND CHILL INDEX
   HX - HEAT INDEX
  VSB - VISIBILITY
$$




USA.gov is the U.S. government's official web portal to all federal, state and local government web resources and services.